Temp
-3 -3 -3 -3 -3 -3 -3 -2 -2 -1 -2 -2 -2 -2 -2 -2 -2 -3 -3 -3 -4 -5 -6 -6 -7 -7 -8 -8 -8 -8 -9 -9 -9 -9 -6 -6 -6 -6 -6 -6 -6 -7 -7 -6 -7
-3 -3 -3 -3 -3 -3 -3 -3 -3 -2 -2 -2 -2 -2 -2 -2 -2 -2 -3 -4 -4 -5 -6 -6 -7 -7 -8 -8 -8 -8 -8 -9 -8 -8 -6 -6 -6 -6 -6 -6 -7 -7 -7 -7 -7
-3 -3 -3 -3 -3 -3 -3 -3 -3 -3 -2 -2 -2 -2 -2 -2 -2 -2 -3 -3 -3 -4 -5 -5 -5 -6 -7 -7 -7 -7 -9 -8 -7 -7 -6 -6 -6 -6 -6 -6 -7 -7 -7 -7 -7
-3 -3 -3 -3 -3 -3 -3 -3 -3 -3 -3 -2 -2 -2 -2 -2 -1 -2 -2 -3 -3 -4 -3 -5 -6 -6 -7 -7 -7 -7 -7 -7 -7 -6 -6 -6 -6 -6 -6 -6 -6 -7 -7 -7 -8
-3 -3 -3 -3 -3 -3 -3 -3 -3 -3 -3 -3 -3 -2 -2 -2 -1 -2 -2 -3 -3 -4 -4 -5 -5 -6 -6 -8 -7 -7 -7 -7 -6 -6 -6 -6 -6 -6 -6 -6 -6 -7 -7 -7 -7
-3 -3 -3 -3 -3 -3 -3 -4 -3 -3 -3 -3 -3 -3 -2 -2 -2 -2 -2 -2 -3 -3 -5 -4 -6 -7 -7 -7 -8 -7 -7 -7 -6 -6 -6 -6 -6 -6 -6 -7 -6 -6 -7 -7 -7
-4 -4 -4 -4 -4 -4 -4 -4 -4 -4 -4 -4 -4 -3 -3 -2 -2 -2 -2 -2 -3 -3 -4 -5 -6 -6 -6 -7 -7 -7 -7 -7 -6 -6 -6 -6 -6 -6 -6 -7 -7 -6 -6 -7 -7
-4 -4 -4 -4 -4 -4 -4 -4 -4 -4 -4 -4 -4 -4 -3 -3 -3 -2 -2 -3 -3 -3 -4 -4 -5 -6 -6 -6 -6 -6 -6 -7 -6 -7 -6 -6 -7 -7 -7 -7 -6 -6 -6 -6 -7
-4 -4 -4 -4 -4 -4 -4 -4 -4 -4 -4 -4 -4 -4 -4 -3 -3 -3 -3 -3 -3 -3 -4 -3 -4 -5 -6 -6 -7 -7 -8 -8 -7 -7 -7 -7 -8 -7 -7 -7 -6 -6 -6 -6 -6
-4 -4 -4 -4 -4 -4 -4 -4 -4 -4 -4 -4 -4 -4 -4 -4 -3 -3 -3 -3 -3 -3 -4 -3 -3 -4 -5 -6 -6 -8 -7 -8 -8 -7 -7 -7 -7 -7 -6 -6 -7 -6 -6 -6 -6
-5 -4 -4 -4 -4 -4 -4 -4 -4 -4 -4 -4 -4 -4 -4 -3 -4 -3 -4 -4 -3 -3 -4 -3 -3 -2 -4 -5 -6 -8 -8 -8 -8 -8 -8 -8 -7 -7 -6 -6 -6 -6 -6 -6 -6
-5 -5 -5 -4 -4 -4 -4 -4 -4 -4 -5 -4 -4 -4 -4 -4 -4 -3 -4 -4 -4 -4 -4 -4 -2 -4 -5 -6 -6 -7 -8 -8 -8 -8 -8 -8 -8 -7 -7 -7 -6 -6 -6 -6 -6
-4 -5 -5 -4 -4 -4 -4 -4 -4 -4 -4 -5 -4 -4 -4 -4 -4 -4 -3 -4 -4 -4 -4 -4 -4 -4 -5 -5 -6 -7 -8 -8 -8 -8 -8 -8 -8 -7 -7 -7 -6 -7 -7 -7 -6
-5 -5 -5 -4 -4 -4 -5 -5 -4 -4 -4 -5 -4 -4 -4 -4 -4 -4 -4 -4 -4 -4 -4 -4 -5 -4 -4 -4 -5 -6 -7 -8 -8 -8 -8 -8 -8 -8 -7 -7 -6 -6 -7 -7 -7
-5 -5 -5 -5 -5 -5 -5 -5 -5 -5 -4 -4 -4 -4 -4 -4 -4 -4 -4 -4 -4 -4 -5 -4 -4 -3 -4 -4 -5 -5 -8 -7 -8 -8 -8 -8 -8 -8 -7 -7 -7 -7 -7 -7 -7
-5 -5 -5 -5 -5 -5 -5 -5 -5 -5 -4 -5 -5 -5 -5 -5 -4 -5 -5 -5 -5 -4 -4 -5 -5 -5 -5 -6 -6 -6 -9 -9 -9 -8 -8 -8 -8 -7 -8 -7 -7 -8 -8 -8 -8
-5 -5 -5 -6 -6 -6 -6 -6 -6 -5 -5 -5 -5 -5 -5 -5 -5 -5 -5 -5 -5 -5 -4 -5 -4 -5 -5 -6 -7 -7 -8 -9 -9 -8 -8 -8 -8 -6 -7 -7 -7 -8 -8 -8 -8
-6 -6 -6 -7 -7 -7 -6 -7 -6 -5 -5 -6 -6 -6 -6 -6 -6 -5 -5 -5 -5 -5 -5 -5 -5 -5 -4 -6 -6 -6 -7 -8 -8 -8 -8 -8 -7 -4 -6 -7 -7 -8 -8 -8 -8
-7 -7 -7 -7 -8 -8 -8 -6 -6 -6 -6 -7 -7 -7 -7 -6 -6 -6 -6 -6 -6 -6 -6 -6 -5 -6 -6 -6 -7 -7 -7 -8 -8 -8 -8 -7 -7 -6 -6 -7 -7 -8 -8 -8 -7
-8 -8 -8 -8 -8 -8 -8 -7 -6 -7 -7 -8 -8 -8 -7 -7 -7 -7 -6 -6 -6 -6 -7 -7 -7 -7 -6 -7 -7 -8 -7 -9 -9 -8 -8 -8 -8 -7 -6 -7 -7 -7 -7 -8 -7
-8 -8 -8 -9 -9 -9 -8 -8 -8 -8 -9 -9 -9 -9 -8 -8 -7 -8 -8 -7 -7 -7 -8 -8 -8 -9 -8 -7 -7 -8 -9 -8 -9 -9 -8 -8 -8 -8 -6 -7 -7 -8 -7 -7 -7
-9 -9 -9 -10 -10 -10 -9 -9 -9 -9 -10 -10 -9 -9 -9 -9 -9 -9 -8 -9 -8 -8 -8 -9 -10 -9 -8 -8 -8 -10 -8 -9 -9 -8 -9 -8 -7 -8 -8 -6 -7 -7 -8 -7 -7
-12 -12 -11 -12 -11 -12 -12 -11 -10 -11 -10 -11 -10 -10 -9 -9 -10 -9 -9 -9 -9 -10 -9 -11 -10 -12 -10 -11 -10 -9 -10 -9 -10 -9 -9 -9 -8 -8 -8 -6 -6 -7 -7 -7 -7
-16 -16 -15 -14 -15 -14 -14 -12 -12 -12 -12 -12 -11 -10 -10 -10 -10 -10 -10 -10 -11 -10 -11 -10 -11 -10 -10 -9 -10 -9 -8 -9 -10 -10 -9 -9 -8 -9 -9 -6 -6 -6 -7 -7 -7
-19 -20 -19 -19 -18 -16 -16 -14 -14 -13 -13 -13 -12 -11 -11 -11 -11 -10 -10 -11 -12 -11 -11 -11 -10 -12 -11 -11 -11 -11 -11 -9 -9 -8 -9 -9 -9 -9 -9 -6 -6 -7 -8 -8 -8
-23 -23 -21 -21 -20 -19 -18 -16 -15 -15 -14 -14 -13 -13 -13 -12 -11 -12 -11 -11 -12 -12 -12 -12 -11 -11 -12 -12 -12 -11 -11 -11 -11 -8 -8 -8 -8 -9 -9 -6 -6 -7 -7 -8 -8
-25 -24 -23 -22 -21 -21 -20 -18 -17 -17 -16 -15 -15 -13 -13 -13 -13 -12 -12 -11 -12 -13 -12 -11 -11 -11 -11 -12 -11 -11 -10 -10 -11 -10 -8 -7 -7 -7 -7 -6 -6 -7 -7 -8 -8
Height
5893 5892 5891 5890 5888 5888 5887 5887 5887 5888 5889 5890 5891 5891 5891 5892 5892 5891 5891 5891 5893 5896 5900 5902 5904 5905 5907 5908 5908 5910 5913 5917 5914 5912 5912 5910 5909 5908 5908 5907 5906 5908 5909 5910 5910
5892 5891 5889 5888 5887 5886 5885 5884 5883 5884 5885 5887 5888 5889 5889 5889 5890 5891 5891 5891 5892 5894 5898 5900 5901 5904 5907 5908 5909 5909 5915 5917 5912 5911 5910 5909 5909 5909 5909 5908 5907 5908 5909 5910 5909
5890 5889 5888 5887 5885 5884 5883 5882 5881 5880 5881 5882 5884 5885 5886 5886 5888 5889 5890 5890 5890 5892 5894 5898 5900 5903 5906 5908 5910 5911 5912 5914 5912 5911 5911 5910 5909 5909 5909 5909 5909 5909 5908 5909 5910
5887 5886 5885 5884 5883 5882 5881 5881 5879 5878 5877 5878 5879 5881 5883 5883 5885 5887 5888 5888 5889 5892 5893 5897 5900 5903 5906 5908 5910 5911 5912 5912 5912 5912 5911 5910 5910 5910 5909 5909 5909 5909 5909 5908 5909
5884 5883 5882 5881 5880 5880 5879 5878 5877 5877 5875 5875 5875 5877 5878 5880 5880 5884 5886 5887 5888 5890 5893 5896 5899 5901 5904 5907 5909 5909 5910 5911 5912 5913 5911 5911 5910 5910 5909 5909 5909 5909 5909 5909 5909
5881 5879 5878 5878 5877 5876 5877 5876 5874 5873 5873 5872 5872 5873 5873 5874 5879 5879 5883 5885 5885 5887 5891 5893 5897 5899 5901 5904 5907 5909 5910 5910 5912 5913 5912 5912 5911 5910 5910 5910 5909 5908 5909 5910 5910
5877 5876 5875 5875 5874 5872 5873 5873 5872 5871 5870 5869 5869 5869 5869 5871 5872 5874 5878 5881 5883 5884 5887 5892 5892 5896 5900 5902 5904 5907 5909 5909 5911 5912 5912 5912 5913 5911 5910 5909 5909 5909 5910 5910 5911
5873 5872 5871 5870 5869 5869 5869 5868 5868 5867 5867 5867 5866 5865 5865 5866 5867 5869 5872 5877 5879 5881 5883 5884 5887 5892 5895 5899 5903 5905 5908 5910 5910 5911 5912 5913 5915 5912 5910 5909 5910 5910 5911 5912 5912
5869 5867 5867 5866 5864 5863 5863 5863 5864 5863 5863 5863 5863 5861 5862 5862 5864 5864 5867 5870 5874 5877 5879 5881 5883 5888 5892 5897 5900 5902 5908 5910 5909 5910 5910 5911 5912 5911 5910 5910 5910 5910 5911 5912 5913
5863 5862 5860 5861 5860 5859 5858 5858 5858 5858 5858 5858 5858 5858 5858 5858 5859 5860 5861 5864 5868 5870 5873 5877 5880 5883 5887 5891 5895 5901 5904 5909 5908 5909 5909 5909 5910 5910 5909 5909 5909 5910 5911 5912 5914
5858 5856 5854 5855 5853 5853 5853 5853 5853 5853 5852 5852 5853 5852 5852 5853 5855 5855 5856 5858 5861 5865 5867 5872 5876 5877 5884 5888 5894 5900 5903 5906 5908 5907 5907 5909 5909 5910 5909 5908 5908 5909 5911 5912 5912
5852 5851 5847 5848 5846 5846 5846 5846 5845 5845 5846 5845 5845 5847 5846 5847 5849 5849 5851 5853 5855 5860 5862 5864 5870 5877 5880 5884 5890 5893 5898 5903 5907 5903 5905 5907 5907 5907 5907 5907 5907 5908 5909 5910 5911
5843 5843 5841 5840 5840 5840 5839 5839 5838 5837 5838 5838 5838 5840 5841 5841 5843 5843 5845 5846 5849 5851 5855 5860 5868 5871 5873 5877 5882 5888 5892 5899 5904 5901 5902 5903 5904 5905 5905 5905 5905 5906 5907 5908 5909
5832 5833 5832 5831 5832 5831 5831 5830 5829 5829 5830 5833 5830 5831 5833 5834 5835 5837 5838 5841 5842 5845 5849 5851 5858 5862 5866 5871 5877 5881 5889 5893 5898 5896 5898 5899 5904 5904 5904 5904 5904 5904 5905 5906 5907
5821 5820 5821 5820 5819 5820 5822 5822 5821 5821 5821 5822 5823 5824 5825 5827 5829 5829 5831 5832 5835 5837 5839 5845 5850 5856 5858 5866 5872 5880 5884 5886 5890 5892 5895 5895 5897 5900 5899 5900 5902 5903 5904 5904 5904
5808 5807 5807 5807 5806 5807 5808 5809 5811 5812 5808 5811 5814 5815 5817 5818 5820 5822 5823 5825 5827 5828 5831 5835 5839 5845 5853 5860 5865 5873 5875 5880 5882 5886 5886 5892 5892 5895 5897 5900 5900 5900 5900 5900 5901
5791 5791 5792 5792 5792 5792 5793 5796 5798 5796 5799 5801 5803 5804 5807 5809 5811 5812 5814 5817 5819 5821 5822 5826 5827 5837 5843 5848 5856 5861 5866 5869 5872 5874 5877 5884 5885 5889 5893 5895 5896 5896 5897 5897 5897
5773 5773 5773 5775 5775 5776 5777 5779 5780 5784 5790 5788 5791 5794 5796 5798 5800 5801 5804 5806 5808 5811 5811 5814 5817 5826 5830 5836 5846 5851 5856 5861 5865 5870 5874 5875 5872 5882 5889 5889 5889 5891 5893 5894 5894
5755 5755 5756 5757 5758 5759 5759 5760 5766 5772 5774 5775 5779 5781 5784 5785 5788 5790 5792 5796 5798 5800 5804 5804 5809 5814 5820 5827 5836 5844 5842 5858 5865 5868 5870 5872 5870 5875 5880 5882 5884 5887 5889 5890 5891
5736 5735 5736 5736 5738 5737 5738 5745 5749 5752 5758 5760 5763 5767 5771 5772 5775 5778 5780 5785 5788 5790 5793 5795 5798 5804 5808 5815 5824 5829 5845 5846 5849 5855 5858 5863 5867 5870 5875 5879 5881 5883 5886 5887 5888
5708 5709 5711 5710 5711 5712 5717 5726 5729 5734 5737 5742 5748 5752 5757 5759 5762 5766 5770 5772 5777 5779 5782 5786 5788 5796 5798 5801 5812 5819 5822 5830 5844 5846 5850 5856 5858 5864 5867 5870 5874 5879 5881 5883 5884
5677 5678 5682 5679 5683 5687 5694 5700 5707 5714 5718 5722 5728 5735 5740 5744 5747 5753 5758 5762 5764 5770 5772 5776 5780 5784 5790 5798 5801 5809 5814 5822 5826 5833 5838 5846 5853 5861 5862 5864 5868 5871 5876 5877 5879
5640 5643 5645 5646 5653 5657 5666 5673 5679 5688 5695 5702 5710 5718 5724 5730 5734 5738 5742 5749 5753 5759 5764 5767 5769 5775 5781 5787 5788 5793 5803 5810 5818 5827 5827 5833 5841 5851 5851 5855 5860 5864 5868 5870 5872
5610 5613 5615 5617 5620 5627 5634 5644 5655 5664 5672 5680 5689 5698 5704 5712 5718 5725 5729 5737 5743 5747 5751 5756 5761 5764 5773 5780 5787 5785 5790 5797 5806 5808 5817 5818 5835 5840 5843 5846 5853 5857 5861 5862 5865
5583 5584 5589 5594 5595 5600 5607 5618 5627 5638 5647 5659 5669 5679 5687 5695 5703 5711 5717 5723 5731 5736 5743 5747 5752 5757 5761 5770 5776 5780 5781 5784 5789 5796 5800 5815 5819 5828 5833 5838 5844 5849 5852 5854 5857
5559 5563 5568 5574 5576 5580 5584 5596 5599 5608 5618 5637 5651 5661 5668 5677 5687 5697 5702 5711 5720 5727 5733 5736 5743 5748 5753 5759 5763 5768 5773 5775 5778 5785 5789 5799 5802 5817 5824 5828 5833 5839 5842 5847 5850
5539 5542 5546 5557 5562 5565 5572 5576 5582 5583 5600 5613 5620 5634 5646 5656 5664 5673 5683 5696 5705 5712 5719 5728 5733 5738 5742 5752 5756 5755 5758 5765 5769 5771 5779 5781 5793 5808 5813 5818 5824 5831 5834 5839 5843
Wind_Speed
16 16 16 15 15 14 15 14 15 14 12 10 7 5 7 3 1 2 5 10 19 22 22 23 15 14 14 19 19 17 14 5 6 9 10 13 12 13 14 16 15 11 7 10 15
15 16 16 17 17 16 14 14 14 15 16 14 12 9 9 8 3 1 3 11 18 24 22 24 18 16 17 21 17 13 12 5 7 8 11 11 12 12 13 15 14 12 10 9 14
14 16 17 17 17 18 17 15 15 14 14 17 16 14 11 12 8 5 4 11 18 22 27 23 22 17 22 20 17 12 10 7 6 8 8 10 12 13 11 12 11 9 14 12 12
17 17 17 16 16 16 17 17 16 15 14 13 19 18 16 15 14 7 7 8 13 22 18 21 20 20 20 20 18 13 8 10 10 10 11 10 12 11 10 9 11 9 6 13 11
18 19 18 18 16 16 16 17 18 16 16 13 13 19 21 21 19 11 12 11 14 22 21 24 22 23 20 21 18 15 12 12 11 10 12 11 11 10 9 8 10 11 8 9 13
19 19 18 18 17 17 16 17 17 18 17 16 14 13 20 26 21 20 15 14 14 16 26 26 24 23 24 24 21 15 14 14 13 12 12 12 12 13 10 8 8 11 10 9 13
19 19 18 18 19 20 19 19 17 16 16 16 16 14 17 20 25 25 22 17 17 20 22 29 31 29 23 23 22 17 15 16 15 14 15 14 12 13 13 12 8 8 9 8 9
18 19 19 20 21 23 23 22 18 16 16 17 17 17 19 17 20 27 27 23 22 21 24 29 35 34 28 26 22 18 16 16 17 17 15 14 8 11 12 12 10 8 7 8 9
21 21 21 21 22 22 22 22 22 20 20 20 19 19 21 20 18 23 29 30 27 26 27 28 32 33 33 27 24 22 15 17 19 19 18 15 12 10 10 10 9 8 7 6 9
23 25 25 22 24 23 24 24 24 24 25 24 22 21 19 20 20 20 26 33 33 31 32 29 29 30 29 33 26 20 19 19 18 20 18 16 13 11 9 9 9 8 8 8 7
26 26 27 24 26 26 25 25 25 26 25 25 24 22 22 21 19 22 23 30 36 36 35 33 29 25 24 25 23 19 20 18 23 23 21 18 14 12 11 9 8 7 5 7 10
30 29 30 28 27 28 28 28 27 26 23 27 27 22 23 21 21 22 24 26 33 37 39 40 32 29 32 30 25 25 25 22 23 28 25 22 20 19 16 13 11 10 6 4 7
35 35 36 35 34 31 31 30 31 29 26 26 28 28 27 26 21 23 23 26 27 37 42 41 34 36 37 34 32 31 29 26 26 28 28 26 25 21 18 16 13 11 9 6 5
41 37 37 40 39 37 36 33 34 33 32 24 28 29 26 26 25 25 22 24 27 30 39 45 44 42 42 36 34 34 30 28 29 32 31 30 21 21 18 15 13 11 9 6 7
46 46 43 42 41 41 39 38 37 36 37 33 30 28 28 28 27 26 24 23 25 30 37 44 47 43 44 40 37 31 31 35 31 34 30 31 29 23 25 19 13 11 10 8 7
50 52 50 49 50 46 44 41 41 40 42 37 33 31 30 29 30 29 28 26 26 29 35 39 47 50 46 45 43 37 34 34 33 34 38 33 33 26 21 13 18 17 17 13 9
51 52 55 55 53 52 48 46 46 47 42 40 38 36 36 35 35 34 33 32 29 28 31 38 45 49 51 50 51 47 44 37 37 39 37 34 37 35 26 20 21 22 19 17 18
53 55 55 54 53 54 54 51 52 49 44 46 43 41 39 38 38 38 36 35 32 30 33 35 44 46 55 56 54 51 50 40 38 35 34 35 39 29 24 25 22 24 24 22 23
53 55 55 55 53 54 56 57 53 52 50 50 47 46 44 46 42 40 42 38 37 32 32 36 40 45 55 58 56 58 60 44 33 33 33 30 36 33 29 27 24 21 27 25 25
60 59 61 60 60 60 63 58 57 56 55 51 50 50 47 48 47 43 41 40 38 31 30 36 39 43 52 58 57 64 54 54 46 42 40 34 29 26 29 25 23 25 22 21 18
71 68 67 70 70 69 68 66 63 64 58 54 53 52 53 48 50 46 41 44 39 38 31 33 37 33 49 57 60 62 68 64 47 46 41 38 36 29 28 31 29 24 24 23 21
72 70 68 69 70 72 70 69 70 66 63 59 57 57 56 54 49 46 46 42 44 39 36 32 34 39 41 50 57 49 61 64 58 58 47 45 36 26 30 32 31 27 23 29 27
61 65 69 70 69 67 67 70 71 67 68 62 60 59 55 57 50 50 50 47 43 38 36 31 35 30 39 34 49 58 51 57 57 53 52 47 43 30 29 31 28 24 28 23 31
57 58 64 67 67 66 67 71 69 66 65 62 61 62 59 59 54 50 52 47 43 41 40 39 34 38 34 36 38 53 66 65 53 60 57 56 40 37 37 44 31 27 23 20 21
57 58 57 59 62 64 66 67 68 70 69 63 62 62 61 58 54 51 52 52 46 44 40 41 40 36 37 35 31 38 44 61 75 71 64 50 52 48 45 41 32 32 27 22 25
53 52 54 54 54 59 60 63 68 67 69 66 63 63 61 61 56 49 54 53 49 47 45 44 41 38 34 34 36 38 39 44 50 73 78 75 68 42 46 49 42 33 33 26 27
41 47 50 49 50 51 54 58 63 66 65 63 66 68 68 64 62 59 59 55 54 51 52 48 44 43 39 27 32 39 45 46 46 55 63 72 69 65 60 50 41 35 28 26 28
Wind_Direction
331 321 315 312 313 317 312 295 273 261 256 250 250 265 273 302 3 179 182 184 179 170 173 166 171 171 151 149 140 133 100 123 127 118 130 121 117 122 129 123 125 151 205 197 159
341 339 327 314 308 305 306 309 301 277 261 248 242 238 246 262 264 123 133 174 185 175 175 177 183 171 159 157 146 128 130 202 139 130 132 121 124 122 130 126 128 135 152 180 157
321 325 333 327 318 306 304 299 300 300 274 257 246 237 234 245 251 197 171 190 191 186 183 189 185 179 162 164 159 141 143 199 158 144 132 125 129 125 130 121 111 129 148 155 150
318 316 317 324 331 325 307 299 298 292 291 276 253 241 236 238 239 219 185 192 204 197 191 186 182 171 168 167 168 158 157 171 169 166 144 135 135 133 133 132 123 110 130 148 156
316 315 310 310 316 322 330 314 293 293 291 283 277 253 241 236 246 230 207 198 202 200 204 185 184 180 176 174 174 165 167 175 171 168 152 140 136 135 134 141 134 123 119 160 154
316 314 305 304 304 308 315 318 313 293 286 289 280 276 253 243 242 236 224 210 206 199 202 200 191 190 191 183 179 186 180 181 166 164 156 144 135 130 122 134 134 125 127 153 152
310 309 302 298 299 298 304 310 310 306 293 286 288 280 267 260 240 236 232 217 209 204 199 202 200 201 196 193 190 190 191 186 170 167 154 146 135 128 121 110 113 122 132 143 157
302 304 303 300 296 292 297 300 300 295 297 299 290 283 273 263 250 238 235 223 218 213 201 204 209 203 198 201 197 202 210 199 182 179 166 163 134 126 113 109 113 117 138 145 158
295 296 298 300 300 298 297 296 290 288 291 291 291 286 282 271 253 246 235 227 222 218 211 209 214 211 207 204 207 213 209 202 195 183 171 173 157 152 133 116 120 130 140 154 158
294 293 290 295 294 295 296 292 288 284 283 284 285 285 282 279 267 256 243 234 224 221 218 218 216 219 215 208 215 213 213 217 195 180 175 181 174 177 162 142 135 146 154 168 179
290 287 286 286 287 287 290 293 292 286 280 279 280 282 278 276 278 266 251 240 232 225 223 226 224 220 220 215 203 209 215 209 190 178 172 170 172 177 169 162 156 148 183 193 187
292 289 284 281 282 282 282 286 286 286 280 276 274 275 276 276 271 269 259 250 239 232 229 224 227 223 222 222 208 198 205 203 207 185 184 187 184 185 173 170 168 169 163 191 219
289 288 285 281 280 281 281 280 281 281 280 276 273 268 271 275 275 264 265 254 247 235 233 235 228 223 222 220 214 200 201 204 215 200 200 198 200 196 191 183 177 170 178 185 201
287 281 278 280 279 277 279 277 275 274 274 270 272 269 266 266 268 266 262 256 250 246 236 234 228 224 227 223 213 201 198 204 217 212 210 210 218 210 200 199 197 180 175 182 217
282 281 279 278 277 275 274 275 273 270 270 270 265 265 263 261 261 266 261 258 258 247 244 239 232 228 228 224 217 194 204 209 211 223 212 229 221 216 209 202 193 184 175 189 204
283 279 274 273 274 273 270 266 266 266 263 264 264 263 261 261 258 259 260 259 253 252 249 241 234 228 227 224 222 208 208 218 215 220 225 222 236 217 222 222 196 202 206 206 207
279 276 274 271 270 269 266 264 261 258 263 262 260 258 261 262 260 255 256 254 257 257 256 247 245 229 227 224 218 215 214 214 215 219 224 232 229 219 215 218 218 222 220 225 229
279 275 270 267 266 265 264 260 259 260 260 259 259 259 259 256 257 257 252 252 249 254 253 245 244 237 228 225 222 219 218 213 219 221 230 227 230 230 212 211 211 217 221 233 247
278 272 268 266 264 264 261 259 260 261 257 256 255 252 254 254 252 252 256 252 249 246 247 251 244 237 231 225 219 219 223 218 223 234 232 236 249 235 210 206 206 213 222 231 250
275 271 265 262 263 260 259 258 258 256 257 252 249 249 247 251 249 249 251 252 249 243 244 246 244 236 234 226 221 219 227 222 221 225 235 230 230 233 208 208 206 210 225 243 255
280 273 264 260 259 258 260 260 255 255 248 246 244 245 245 244 247 246 242 246 244 244 235 240 245 240 232 230 226 219 221 225 227 229 228 236 235 239 219 199 204 216 221 229 235
278 270 265 259 256 254 254 252 251 249 246 241 241 240 242 241 242 241 240 237 240 238 238 238 242 232 240 233 232 228 229 227 225 226 232 236 240 245 244 211 208 214 227 227 236
274 266 260 253 250 248 246 245 244 242 241 238 239 237 240 242 237 238 238 236 238 235 234 226 231 235 231 227 229 227 224 228 229 230 232 239 237 216 244 234 220 221 218 236 230
269 260 253 249 243 240 239 239 237 234 232 233 234 233 235 236 236 232 235 232 232 233 229 232 224 236 234 244 238 238 232 227 226 230 233 232 235 233 238 239 229 232 224 259 234
263 258 252 250 245 239 232 229 227 228 229 228 229 230 234 237 236 230 229 228 223 230 230 229 231 229 236 226 228 232 238 238 233 236 232 233 235 234 231 241 236 237 237 239 233
266 256 252 247 247 240 234 226 222 221 222 223 227 228 233 233 233 225 226 224 221 222 224 230 231 236 239 238 237 237 239 240 239 237 241 241 237 232 246 241 240 232 237 247 239
272 263 255 248 243 244 235 232 228 226 219 218 221 221 224 225 225 221 220 219 212 215 222 226 228 234 240 244 246 246 242 237 240 244 239 242 245 243 242 247 240 232 230 225 236